Change the Weather History Date:

Friday, April 18, 2014

  Actual Average Record
Temperature  
Mean Temperature 52 °F -  
Max Temperature 75 °F 62 °F 81 °F (1989)
Min Temperature 32 °F 26 °F 16 °F (2013)
Degree Days  
Heating Degree Days 12    
Growing Degree Days 2 (Base 50)    
Moisture  
Dew Point 21 °F    
Average Humidity 33    
Maximum Humidity 74    
Minimum Humidity 12    
Precipitation  
Precipitation 0.00 in - - ()
Sea Level Pressure  
Sea Level Pressure 29.88 in    
Wind  
Wind Speed 7 mph (SW)    
Max Wind Speed 26 mph    
Max Gust Speed 43 mph    
Visibility 10 miles    
Events      
Averages and records for this station are not official NWS values.
T = Trace of Precipitation, MM = Missing Value Source: NWS Daily Summary

Daily Weather History Graph

Daily Weather History Graph

Search for Another Location

Airport or City:

Trip Planner

Search our weather history database for the weather conditions in past years. The results will help you decide how hot, cold, wet, or windy it might be!

Date:

Astronomy

Apr. 18, 2014 Rise Set
Actual Time 6:38 AM MDT 7:50 PM MDT
Civil Twilight 6:12 AM MDT 8:17 PM MDT
Nautical Twilight 5:40 AM MDT 8:48 PM MDT
Astronomical Twilight 5:08 AM MDT 9:21 PM MDT
Moon 11:34 PM MDT (4/18) 9:08 AM MDT (4/18)
Length of Visible Light 14h 04m
Length of Day
13h 12m
Waning Gibbous, 86% of the Moon is Illuminated
Apr 18
Waning Gibbous
Apr 22
Last Quarter
Apr 29
New
May 6
First Quarter
May 14
Full

Hourly Weather History & Observations

Time (MDT) Temp. Windchill Dew Point Humidity Pressure Visibility Wind Dir Wind Speed Gust Speed Precip Events Conditions
12:53 AM 42.1 °F - 17.1 °F 37% 29.90 in 10.0 mi Calm Calm - N/A   Clear
1:53 AM 37.9 °F - 14.0 °F 38% 29.90 in 10.0 mi Calm Calm - N/A   Clear
2:53 AM 37.9 °F 35.5 °F 15.1 °F 39% 29.87 in 10.0 mi North 3.5 mph - N/A   Clear
3:53 AM 32.0 °F 28.7 °F 12.9 °F 45% 29.89 in 10.0 mi West 3.5 mph - N/A   Clear
4:53 AM 35.1 °F - 16.0 °F 46% 29.88 in 10.0 mi Calm Calm - N/A   Clear
6:53 AM 33.1 °F - 15.1 °F 48% 29.92 in 10.0 mi Calm Calm - N/A   Clear
7:53 AM 39.9 °F - 18.0 °F 41% 29.92 in 10.0 mi Calm Calm - N/A   Clear
8:53 AM 51.1 °F - 21.9 °F 32% 29.92 in 10.0 mi West 9.2 mph - N/A   Clear
9:53 AM 60.1 °F - 21.0 °F 22% 29.86 in 10.0 mi Variable 3.5 mph - N/A   Clear
10:44 AM 69.1 °F - 17.1 °F 14% 30.14 in 10.0 mi South 17.3 mph 25.3 mph N/A   Clear
10:53 AM 69.1 °F - 17.1 °F 14% 29.81 in 10.0 mi South 15.0 mph 25.3 mph N/A   Clear
11:53 AM 70.0 °F - 17.1 °F 13% 29.83 in 10.0 mi SW 15.0 mph 25.3 mph N/A   Clear
12:53 PM 73.9 °F - 18.0 °F 12% 29.78 in 10.0 mi South 20.7 mph 31.1 mph N/A   Clear
1:53 PM 72.0 °F - 19.9 °F 14% 29.79 in 10.0 mi SSW 26.5 mph 42.6 mph N/A   Mostly Cloudy
2:53 PM 71.1 °F - 18.0 °F 13% 29.78 in 10.0 mi South 13.8 mph - N/A   Mostly Cloudy
3:41 PM 72.0 °F - 18.0 °F 13% 30.04 in 10.0 mi WSW 13.8 mph 24.2 mph N/A   Mostly Cloudy
3:53 PM 71.1 °F - 18.0 °F 13% 29.80 in 10.0 mi WSW 20.7 mph 26.5 mph N/A   Mostly Cloudy
4:53 PM 70.0 °F - 19.9 °F 15% 29.78 in 10.0 mi WSW 24.2 mph 31.1 mph N/A   Scattered Clouds
6:53 PM 60.1 °F - 28.9 °F 31% 29.93 in 10.0 mi SW 20.7 mph 28.8 mph N/A   Mostly Cloudy
7:53 PM 55.9 °F - 33.1 °F 42% 29.94 in 10.0 mi WSW 23.0 mph 32.2 mph N/A   Overcast
9:53 PM 48.9 °F - 37.9 °F 66% 29.90 in 10.0 mi SW 12.7 mph - 0.00 in   Mostly Cloudy
10:53 PM 48.0 °F - 39.0 °F 71% 29.84 in 10.0 mi SSW 5.8 mph - N/A   Overcast
11:53 PM 46.9 °F - 39.0 °F 74% 29.83 in 10.0 mi Calm Calm - N/A   Mostly Cloudy